RH
67 68 70 71 70 71 70 50 37 37 31 26 22 24 27 31 37 35 36 37 37 36 41 42 40 37 35 32 28 26 28 28 26 25 24 23 25 24 25 27 27 27 27
69 70 72 71 66 70 67 50 38 33 32 26 25 25 28 34 39 39 39 42 41 40 41 43 44 40 38 33 30 30 30 29 27 25 23 21 20 20 20 20 23 24 22
71 72 73 68 67 70 65 51 32 33 30 28 28 29 33 41 43 44 44 47 46 44 45 43 44 40 38 36 34 35 33 32 27 26 24 23 23 22 20 17 16 15 16
71 74 69 74 65 64 58 47 39 32 30 29 29 32 38 45 47 49 52 55 53 54 54 49 45 43 40 41 42 41 36 35 33 31 28 25 25 23 22 19 17 14 13
74 71 70 62 53 55 51 46 40 33 31 30 33 37 41 45 49 54 59 60 61 60 60 56 53 51 49 49 49 48 45 41 40 34 31 30 29 26 22 18 16 15 15
71 65 53 46 46 48 46 42 41 38 36 36 38 41 44 50 55 57 60 63 65 65 65 65 62 59 56 54 54 54 50 48 44 38 36 36 33 28 21 18 17 17 20
61 53 41 40 41 44 45 43 45 47 44 42 43 44 47 52 58 62 63 66 66 67 71 69 65 63 64 63 61 60 52 51 47 46 42 41 37 31 27 23 21 20 26
60 61 54 40 45 47 49 50 51 52 52 52 52 53 54 52 57 65 69 67 66 69 67 67 66 67 68 66 64 59 54 54 56 54 51 46 40 33 27 23 20 19 23
63 64 60 57 52 53 55 61 65 68 69 71 70 72 72 71 72 74 77 73 70 69 71 69 66 65 64 67 63 56 59 59 60 59 57 52 41 33 29 23 19 18 22
60 64 67 67 72 68 69 75 78 80 83 85 87 92 81 79 78 77 79 76 75 73 73 73 73 71 67 62 58 60 60 61 63 62 59 48 39 34 29 24 20 18 21
58 61 64 74 77 76 79 85 86 81 78 81 89 90 84 80 72 75 75 73 74 75 72 73 71 67 62 63 63 63 63 64 64 61 53 43 42 39 34 28 21 18 17
55 65 70 75 83 86 84 79 89 83 85 75 73 72 69 65 56 63 66 69 70 74 75 71 69 71 72 69 67 64 64 63 62 56 49 44 44 45 40 34 27 22 19
59 73 84 93 92 89 83 81 84 83 79 72 65 61 63 63 65 68 67 69 70 70 72 73 73 72 70 69 68 66 64 61 60 53 49 46 47 48 45 38 29 24 22
76 86 94 94 89 89 84 85 86 80 72 66 61 63 68 66 62 69 68 74 72 73 78 78 75 77 76 74 72 69 65 62 56 51 50 51 52 50 47 39 32 27 23
83 86 89 89 91 93 93 85 86 74 66 62 70 72 68 67 59 76 74 69 73 72 74 77 74 78 77 73 71 65 59 53 53 53 53 54 54 55 56 47 38 31 29
83 93 95 90 82 87 81 85 77 71 63 69 75 67 68 70 69 71 72 77 80 80 76 76 76 77 76 73 67 59 53 54 55 55 54 54 57 61 65 61 57 46 42
95 91 87 85 87 81 78 76 70 65 66 71 72 70 65 68 75 71 73 76 80 84 76 73 73 73 70 66 58 52 52 55 56 56 56 58 61 63 66 70 69 68 59
97 72 71 75 70 75 80 69 67 65 66 66 64 64 67 72 66 75 78 79 79 77 74 69 67 64 62 58 55 55 57 62 62 63 68 68 71 67 69 80 82 80 72
96 71 66 69 74 74 68 66 64 62 59 56 55 59 69 69 73 74 77 79 73 74 72 67 60 57 55 56 56 61 62 68 68 74 77 81 87 84 76 77 84 82 79
76 74 73 74 71 69 66 59 50 47 52 53 62 68 68 72 73 72 69 72 71 68 63 56 52 51 51 49 52 53 53 53 54 61 65 58 63 75 84 83 85 88 82
70 73 79 72 69 59 49 43 46 54 54 55 65 67 71 68 72 72 69 67 63 56 51 51 52 51 50 51 50 45 46 44 41 40 45 47 62 73 77 83 84 95 93
70 69 67 59 52 47 43 45 50 54 58 65 65 71 71 72 72 63 61 57 52 50 51 51 50 50 49 52 48 48 48 50 46 30 40 43 51 56 73 83 88 97 93
62 53 49 49 47 44 47 50 55 57 61 63 70 71 67 61 58 52 49 48 49 49 48 49 49 51 45 42 41 39 40 41 37 34 40 35 37 44 59 87 95 97 87
49 48 49 46 44 47 51 53 55 56 61 66 65 60 58 56 51 51 49 47 44 43 41 40 37 32 27 25 26 25 23 21 11 10 26 42 33 42 84 98 99 92 80
50 50 46 42 45 48 50 51 53 56 60 60 60 56 54 56 55 52 49 43 40 39 39 36 32 29 27 29 31 32 26 30 25 19 20 32 49 59 97 98 98 86 79
48 43 40 43 45 46 48 51 54 59 62 59 56 57 60 59 50 43 41 40 38 39 37 35 33 29 27 25 22 21 28 36 38 33 29 30 54 64 97 94 96 87 75